User: anonymous   Login
Location: Del Oro Observatory
(38.3044°N, 104.8119°W)
Time: 23:01:58
(UTC-06:00)
Language:

Cosmos 1602 Rocket - Orbit

View from above orbital plane
View from above orbital plane
View from above satellite
View from above satellite

Ground track
Ground track

The orbit data is extracted from the following two-line orbital elements,

1 15332U 84105B   15183.98644476  .00000130  00000-0  12930-4 0  9991
2 15332 082.5355 136.5067 0020504 204.6324 222.6509 14.83100752660575
Epoch (UTC): 02 July 2015 23:40:28
Eccentricity: 0.0020504
inclination: 82.5355°
perigee height: 605 km
apogee height: 634 km
right ascension of ascending node: 136.5067°
argument of perigee: 204.6324°
revolutions per day: 14.83100752
mean anomaly at epoch: 222.6509°
orbit number at epoch: 66057

The dashed part of the orbit path shows where the satellite is in the earth's shadow,  

DLR